TimeCST,TemperatureF,Dew PointF,Humidity,Sea Level PressureIn,VisibilityMPH,Wind Direction,Wind SpeedMPH,Gust SpeedMPH,PrecipitationIn,Events,Conditions,WindDirDegrees,DateUTC
12:15 AM,44.4,32.7,64,30.25,10.0,NW,4.6,-,N/A,,Clear,310,2013-11-10 06:15:00
12:35 AM,43.7,32.2,64,30.26,10.0,NW,4.6,-,N/A,,Clear,310,2013-11-10 06:35:00
12:55 AM,48.4,32.4,54,30.26,10.0,NW,6.9,-,N/A,,Clear,310,2013-11-10 06:55:00
1:15 AM,49.3,32.0,51,30.27,10.0,NW,6.9,-,N/A,,Clear,310,2013-11-10 07:15:00
1:35 AM,49.3,30.6,49,30.28,10.0,NNW,8.1,-,N/A,,Clear,330,2013-11-10 07:35:00
1:55 AM,48.9,31.1,50,30.29,10.0,NNW,8.1,-,N/A,,Clear,330,2013-11-10 07:55:00
2:15 AM,47.7,31.5,53,30.29,10.0,NW,9.2,-,N/A,,Clear,320,2013-11-10 08:15:00
2:35 AM,47.3,31.5,54,30.29,10.0,NNW,11.5,16.1,N/A,,Clear,330,2013-11-10 08:35:00
2:55 AM,46.6,31.3,55,30.30,10.0,NNW,8.1,18.4,N/A,,Clear,330,2013-11-10 08:55:00
3:15 AM,45.5,31.6,58,30.30,10.0,NNW,8.1,-,N/A,,Clear,330,2013-11-10 09:15:00
3:35 AM,44.6,31.8,61,30.31,10.0,NW,4.6,-,N/A,,Clear,320,2013-11-10 09:35:00
3:55 AM,43.9,31.8,63,30.31,10.0,NW,3.5,-,N/A,,Clear,320,2013-11-10 09:55:00
4:15 AM,42.4,31.5,65,30.32,10.0,NW,3.5,-,N/A,,Clear,320,2013-11-10 10:15:00
4:35 AM,39.4,31.1,72,30.33,10.0,Calm,Calm,-,N/A,,Clear,0,2013-11-10 10:35:00
4:55 AM,37.6,32.2,81,30.34,10.0,WNW,3.5,-,N/A,,Clear,290,2013-11-10 10:55:00
5:15 AM,38.1,32.2,79,30.34,10.0,NW,3.5,-,N/A,,Unknown,310,2013-11-10 11:15:00
5:35 AM,37.8,32.0,80,30.35,10.0,NW,3.5,-,N/A,,Unknown,310,2013-11-10 11:35:00
5:55 AM,34.5,31.1,87,30.36,10.0,WNW,5.8,-,N/A,,Unknown,290,2013-11-10 11:55:00
6:45 AM,39.2,32.0,75,30.37,10.0,WNW,9.2,-,N/A,,Clear,300,2013-11-10 12:45:00
7:45 AM,41.0,32.0,70,30.40,10.0,NW,6.9,-,N/A,,Clear,310,2013-11-10 13:45:00
8:45 AM,42.8,30.2,61,30.42,10.0,NW,16.1,-,N/A,,Clear,320,2013-11-10 14:45:00
9:45 AM,44.6,30.2,57,30.44,10.0,NNW,11.5,-,N/A,,Clear,340,2013-11-10 15:45:00
10:45 AM,46.4,26.6,46,30.44,10.0,NNW,11.5,-,N/A,,Clear,340,2013-11-10 16:45:00
11:45 AM,50.0,26.6,40,30.41,10.0,Variable,3.5,-,N/A,,Clear,0,2013-11-10 17:45:00
12:50 PM,51.8,24.8,35,30.38,10.0,Variable,3.5,-,N/A,,Partly Cloudy,0,2013-11-10 18:50:00
2:50 PM,53.6,24.8,33,30.36,10.0,Variable,3.5,-,N/A,,Partly Cloudy,0,2013-11-10 20:50:00
3:50 PM,51.8,23.0,33,30.35,10.0,Variable,3.5,-,N/A,,Partly Cloudy,0,2013-11-10 21:50:00
4:50 PM,50.0,26.6,40,30.34,10.0,Calm,Calm,-,N/A,,Scattered Clouds,0,2013-11-10 22:50:00
6:50 PM,37.4,32.0,81,30.34,10.0,Calm,Calm,-,N/A,,Scattered Clouds,0,2013-11-11 00:50:00
7:50 PM,39.2,30.2,70,30.33,10.0,Calm,Calm,-,N/A,,Scattered Clouds,0,2013-11-11 01:50:00
8:50 PM,35.6,32.0,87,30.33,10.0,Calm,Calm,-,N/A,,Scattered Clouds,0,2013-11-11 02:50:00
9:15 PM,34.9,31.3,87,30.33,1.5,ESE,4.6,-,N/A,,Mist,110,2013-11-11 03:15:00
9:35 PM,35.1,31.8,88,30.32,1.5,ESE,3.5,-,N/A,,Mist,110,2013-11-11 03:35:00
9:50 PM,35.6,32.0,87,30.32,10.0,Calm,Calm,-,N/A,,Scattered Clouds,0,2013-11-11 03:50:00
9:55 PM,36.0,32.0,86,30.32,1.0,Calm,Calm,-,N/A,,Mist,0,2013-11-11 03:55:00
10:15 PM,34.2,31.6,90,30.31,1.0,Calm,Calm,-,N/A,,Mist,0,2013-11-11 04:15:00
10:35 PM,34.5,31.8,90,30.30,1.2,East,3.5,-,N/A,,Mist,100,2013-11-11 04:35:00
10:55 PM,33.8,31.6,92,30.30,1.0,ESE,3.5,-,N/A,,Mist,110,2013-11-11 04:55:00
11:15 PM,34.7,32.5,92,30.29,1.2,ESE,3.5,-,N/A,,Mist,120,2013-11-11 05:15:00
11:35 PM,35.4,31.3,85,30.29,1.2,ESE,3.5,-,N/A,,Haze,120,2013-11-11 05:35:00
11:55 PM,35.4,31.8,87,30.29,10.0,Calm,Calm,-,N/A,,Clear,0,2013-11-11 05:55:00